| time (UTC) | temp C | wind direction | speed KPH | gust KPH | rain 1hr cm | rain 24hr cm | rain mn cm | humidity % | barometer mb |
| 20260506124503 | 12 | 277 | 0.0 | 0.0 | 0.00 | 0.00 | 0.00 | 88 | 1014.5 |
| 20260506123028 | 12 | 277 | 0.0 | 0.0 | 0.00 | 0.00 | 0.00 | 87 | 1014.4 |
| 20260506121552 | 12 | 277 | 0.0 | 0.0 | 0.00 | 0.00 | 0.00 | 87 | 1014.4 |
| 20260506120048 | 12 | 277 | 0.0 | 1.6 | 0.00 | 0.00 | 0.00 | 87 | 1014.3 |
| 20260506114519 | 12 | 277 | 0.0 | 4.8 | 0.00 | 0.00 | 0.00 | 86 | 1014.2 |
| 20260506113029 | 12 | 257 | 0.0 | 3.2 | 0.00 | 0.00 | 0.00 | 87 | 1014.0 |
| 20260506111553 | 12 | 289 | 0.0 | 3.2 | 0.00 | 0.00 | 0.00 | 86 | 1014.0 |
| 20260506110036 | 12 | 346 | 0.0 | 3.2 | 0.00 | 0.00 | 0.00 | 86 | 1014.0 |
| 20260506104616 | 12 | 350 | 0.0 | 1.6 | 0.00 | 0.00 | 0.00 | 87 | 1013.9 |
| 20260506103025 | 12 | 350 | 0.0 | 0.0 | 0.00 | 0.00 | 0.00 | 87 | 1013.9 |
| 20260506101556 | 12 | 350 | 0.0 | 0.0 | 0.00 | 0.00 | 0.00 | 87 | 1013.9 |
| 20260506100035 | 12 | 350 | 0.0 | 0.0 | 0.00 | 0.03 | 0.00 | 87 | 1013.8 |
| 20260506094605 | 12 | 350 | 0.0 | 1.6 | 0.00 | 0.03 | 0.00 | 87 | 1013.9 |
| 20260506094507 | 12 | 350 | 0.0 | 1.6 | 0.00 | 0.03 | 0.00 | 86 | 1013.9 |
| 20260506093027 | 12 | 350 | 0.0 | 1.6 | 0.00 | 0.03 | 0.00 | 86 | 1013.9 |
| 20260506091552 | 12 | 350 | 0.0 | 4.8 | 0.00 | 0.03 | 0.00 | 86 | 1013.8 |
| 20260506084528 | 12 | 346 | 0.0 | 8.0 | 0.00 | 0.08 | 0.00 | 85 | 1013.8 |
| 20260506083047 | 12 | 176 | 1.6 | 4.8 | 0.00 | 0.08 | 0.00 | 85 | 1013.7 |
| 20260506081508 | 12 | 177 | 1.6 | 6.4 | 0.00 | 0.08 | 0.00 | 85 | 1014.0 |
| 20260506073027 | 12 | 194 | 0.0 | 3.2 | 0.00 | 0.23 | 0.08 | 85 | 1013.5 |
| 20260506071607 | 12 | 215 | 0.0 | 3.2 | 0.00 | 0.23 | 0.08 | 85 | 1013.4 |
| 20260506061552 | 12 | 244 | 1.6 | 6.4 | 0.00 | 0.28 | 0.08 | 85 | 1013.1 |
| 20260506044510 | 12 | 254 | 3.2 | 11.3 | 0.00 | 0.43 | 0.08 | 90 | 1012.6 |
| 20260506043031 | 12 | 171 | 4.8 | 11.3 | 0.00 | 0.43 | 0.08 | 89 | 1012.4 |
| 20260506041603 | 12 | 236 | 3.2 | 12.9 | 0.00 | 0.43 | 0.08 | 89 | 1012.2 |
| 20260506040040 | 12 | 202 | 4.8 | 16.1 | 0.00 | 0.43 | 0.08 | 91 | 1011.9 |
| 20260506034504 | 12 | 207 | 4.8 | 16.1 | 0.00 | 0.43 | 0.08 | 91 | 1011.6 |
| 20260506033031 | 12 | 224 | 6.4 | 17.7 | 0.00 | 0.43 | 0.08 | 91 | 1011.5 |
| 20260506031555 | 12 | 193 | 6.4 | 19.3 | 0.00 | 0.43 | 0.08 | 91 | 1011.3 |
| 20260506030036 | 12 | 236 | 6.4 | 19.3 | 0.00 | 0.43 | 0.08 | 91 | 1011.2 |
| 20260506024601 | 13 | 188 | 3.2 | 19.3 | 0.00 | 0.43 | 0.08 | 90 | 1011.1 |
| 20260506024501 | 13 | 216 | 6.4 | 19.3 | 0.00 | 0.43 | 0.08 | 90 | 1011.1 |
| 20260506023026 | 13 | 247 | 4.8 | 17.7 | 0.00 | 0.43 | 0.08 | 90 | 1011.1 |
| 20260506021555 | 13 | 234 | 6.4 | 22.5 | 0.00 | 0.43 | 0.08 | 90 | 1010.8 |
| 20260506020034 | 13 | 258 | 8.0 | 19.3 | 0.00 | 0.43 | 0.08 | 89 | 1010.5 |
| 20260506014559 | 13 | 217 | 8.0 | 22.5 | 0.00 | 0.43 | 0.08 | 88 | 1010.5 |
| 20260506013029 | 13 | 156 | 8.0 | 20.9 | 0.00 | 0.43 | 0.08 | 87 | 1010.6 |
| 20260506011550 | 13 | 243 | 4.8 | 19.3 | 0.00 | 0.43 | 0.08 | 87 | 1010.4 |
| 20260506010041 | 14 | 234 | 9.7 | 17.7 | 0.00 | 0.43 | 0.08 | 86 | 1010.5 |
| 20260506004516 | 14 | 237 | 6.4 | 16.1 | 0.00 | 0.43 | 0.08 | 85 | 1010.3 |
| 20260506003033 | 15 | 219 | 6.4 | 14.5 | 0.00 | 0.43 | 0.08 | 84 | 1010.3 |
| 20260506001609 | 15 | 202 | 9.7 | 19.3 | 0.00 | 0.43 | 0.08 | 84 | 1010.2 |
| 20260506000040 | 15 | 234 | 8.0 | 17.7 | 0.00 | 0.43 | 0.08 | 85 | 1010.1 |
| 20260505234601 | 14 | 178 | 8.0 | 17.7 | 0.00 | 0.43 | 0.08 | 85 | 1010.1 |
| 20260505233026 | 14 | 294 | 8.0 | 17.7 | 0.00 | 0.43 | 0.08 | 85 | 1010.1 |
| 20260505231554 | 15 | 198 | 6.4 | 19.3 | 0.00 | 0.43 | 0.08 | 84 | 1010.3 |
| 20260505230046 | 15 | 213 | 8.0 | 19.3 | 0.00 | 0.43 | 0.08 | 83 | 1010.2 |
| 20260505224514 | 15 | 213 | 9.7 | 24.1 | 0.00 | 0.43 | 0.08 | 82 | 1010.2 |
| 20260505223043 | 16 | 229 | 6.4 | 16.1 | 0.00 | 0.43 | 0.08 | 82 | 1010.1 |
| 20260505221554 | 16 | 232 | 6.4 | 16.1 | 0.00 | 0.43 | 0.08 | 84 | 1010.2 |
| 20260505220039 | 15 | 196 | 4.8 | 17.7 | 0.00 | 0.43 | 0.08 | 85 | 1010.3 |
| 20260505214607 | 14 | 282 | 6.4 | 17.7 | 0.00 | 0.43 | 0.08 | 86 | 1010.5 |
| 20260505213040 | 14 | 222 | 6.4 | 14.5 | 0.00 | 0.43 | 0.08 | 86 | 1010.7 |
| 20260505211557 | 14 | 226 | 6.4 | 14.5 | 0.00 | 0.43 | 0.08 | 87 | 1010.7 |
| 20260505210049 | 13 | 225 | 4.8 | 16.1 | 0.00 | 0.43 | 0.08 | 87 | 1010.8 |
| 20260505204523 | 14 | 254 | 6.4 | 16.1 | 0.00 | 0.43 | 0.08 | 87 | 1010.8 |
| 20260505203025 | 14 | 172 | 4.8 | 14.5 | 0.00 | 0.43 | 0.08 | 86 | 1010.8 |
| 20260505201554 | 14 | 230 | 1.6 | 16.1 | 0.00 | 0.43 | 0.08 | 86 | 1010.8 |
| 20260505200039 | 15 | 230 | 3.2 | 17.7 | 0.00 | 0.43 | 0.08 | 85 | 1010.8 |
| 20260505194507 | 15 | 223 | 3.2 | 14.5 | 0.00 | 0.43 | 0.08 | 84 | 1010.9 |
| 20260505193042 | 15 | 243 | 4.8 | 12.9 | 0.00 | 0.43 | 0.08 | 84 | 1011.0 |
| 20260505191557 | 15 | 163 | 3.2 | 11.3 | 0.00 | 0.43 | 0.08 | 85 | 1011.0 |
| 20260505190048 | 15 | 242 | 4.8 | 14.5 | 0.00 | 0.43 | 0.08 | 88 | 1010.8 |
| 20260505184502 | 14 | 272 | 1.6 | 11.3 | 0.00 | 0.43 | 0.08 | 88 | 1010.8 |
| 20260505183043 | 14 | 178 | 3.2 | 9.7 | 0.00 | 0.43 | 0.08 | 87 | 1010.9 |
| 20260505181552 | 14 | 209 | 0.0 | 6.4 | 0.00 | 0.43 | 0.08 | 86 | 1010.8 |
| 20260505180042 | 15 | 250 | 1.6 | 12.9 | 0.00 | 0.43 | 0.08 | 86 | 1010.7 |
| 20260505174506 | 14 | 203 | 4.8 | 11.3 | 0.00 | 0.43 | 0.08 | 89 | 1010.4 |
| 20260505173037 | 13 | 214 | 3.2 | 8.0 | 0.00 | 0.43 | 0.08 | 90 | 1010.5 |
| 20260505171552 | 13 | 243 | 1.6 | 6.4 | 0.00 | 0.43 | 0.08 | 91 | 1010.4 |
| 20260505170040 | 13 | 263 | 0.0 | 4.8 | 0.00 | 0.43 | 0.08 | 92 | 1010.4 |
| 20260505164505 | 13 | 218 | 0.0 | 3.2 | 0.00 | 0.43 | 0.08 | 93 | 1010.5 |
| 20260505163030 | 12 | 228 | 0.0 | 4.8 | 0.00 | 0.43 | 0.08 | 93 | 1010.4 |
| 20260505161551 | 12 | 229 | 0.0 | 4.8 | 0.00 | 0.43 | 0.08 | 94 | 1010.4 |
| 20260505153030 | 12 | 232 | 0.0 | 1.6 | 0.00 | 0.43 | 0.08 | 95 | 1010.0 |
| 20260505151551 | 12 | 235 | 0.0 | 6.4 | 0.00 | 0.43 | 0.08 | 95 | 1010.1 |